Flag for Finland Weather past 2 weeks in Joensuu, Finland

Now
12 °F

Snow flurries. Scattered clouds.


Feels Like: 3 °F
Forecast: 4 / 9 °F
Wind: 6 mph from Northeast

Location: Joensuu Airport

Current Time: Dec 27, 2014 at 2:58:23 PM

Latest Report: Dec 27, 2014 at 2:20 PM


Visibility: N/A

Pressure: 29.80 "Hg

Humidity: 92%

Dew point: 10 °F

Location of JoensuuLocation

Historic Weather in Joensuu — Graph

°F

Joensuu temperature yesterday

Maximum temperature yesterday: 21 °F (at 12:20 PM)
Minimum temperature yesterday: 10 °F (at 12:20 AM)
Average temperature yesterday: 18 °F

Past Weeks' High & Low Weather Summary

 TemperatureHumidityPressure
High34 °F (Dec 15, 8:50 AM)100% (Dec 12, 1:20 PM)29.80 "Hg (Dec 12, 1:20 PM)
Low-9 °F (Dec 25, 7:50 AM)84% (Dec 24, 3:50 PM)28.82 "Hg (Dec 20, 7:20 AM)
Average23 °F97%29.36 "Hg
* Reported Dec 12 1:20 PM — Dec 27 1:50 PM, Joensuu, Weather by CustomWeather, © 2014

Note: Actual official high and low records may vary slightly from our data, if they occured in-between our weather recording intervals... More about our weather records

Advertising

Joensuu weather history for previous 24 hours

 ConditionsComfort  
Time TempWeatherWind HumidityBarometerVisibility
1:50 PM
Dec 27
12 °FScattered clouds.7 mph100%29.80 "HgN/A
1:20 PM14 °FOvercast.7 mph100%29.77 "HgN/A
12:50 PM14 °FOvercast.6 mph100%29.77 "HgN/A
12:20 PM16 °FOvercast.6 mph100%29.77 "HgN/A
11:50 AM18 °FMostly cloudy.7 mph100%29.74 "HgN/A
11:20 AM18 °FMostly cloudy.7 mph100%29.74 "HgN/A
10:50 AM18 °FLow clouds.7 mph100%29.74 "HgN/A
10:20 AM18 °FLow clouds.7 mph93%29.74 "HgN/A
9:50 AM16 °FBroken clouds.3 mph100%29.74 "HgN/A
9:20 AM16 °FClear.2 mph100%29.71 "Hg10 mi
8:50 AM18 °FLight snow. Passing clouds.3 mph93%29.71 "HgN/A
8:20 AM16 °FLight snow. Overcast.3 mph100%29.71 "HgN/A
7:50 AM18 °FLight snow. Overcast.3 mph100%29.68 "Hg4 mi
7:20 AM18 °FLight snow. Overcast.3 mph100%29.68 "Hg3 mi
6:50 AM19 °FLight snow. Overcast.3 mph100%29.68 "Hg3 mi
6:20 AM18 °FLight snow. Overcast.1 mph100%29.68 "Hg2 mi
5:20 AM18 °FLight snow. Mostly cloudy.2 mph100%29.68 "HgN/A
4:50 AM18 °FLight snow. Passing clouds.1 mph100%29.68 "HgN/A
4:20 AM19 °FLight snow. Overcast.1 mph100%29.68 "Hg4 mi
3:50 AM19 °FLight snow. Overcast.2 mph100%29.68 "Hg1 mi
3:20 AM19 °FLight snow. Overcast.2 mph100%29.68 "Hg2 mi
2:50 AM19 °FLight snow. Overcast.No wind100%29.68 "Hg2 mi
2:20 AM19 °FLight snow. Overcast.No wind100%29.68 "Hg4 mi
1:50 AM19 °FLight snow. Overcast.1 mph100%29.68 "HgN/A
1:20 AM19 °FLight snow. Overcast.2 mph100%29.68 "Hg4 mi
12:50 AM19 °FLight snow. Overcast.3 mph100%29.68 "HgN/A
12:20 AM19 °FLight snow. Overcast.2 mph100%29.68 "HgN/A
11:50 PM
Dec 26
21 °FLight snow. Overcast.2 mph93%29.68 "HgN/A
11:20 PM21 °FLight snow. Low clouds.3 mph93%29.68 "HgN/A
10:50 PM21 °FLight snow. Low clouds.5 mph93%29.68 "Hg4 mi
10:20 PM19 °FSnow flurries. Overcast.3 mph100%29.65 "Hg2 mi
9:50 PM19 °FSnow flurries. Passing clouds.2 mph100%29.65 "HgN/A
9:20 PM19 °FLight snow. Overcast.1 mph100%29.65 "HgN/A
8:50 PM21 °FLight snow. Overcast.3 mph100%29.65 "Hg3 mi
8:20 PM21 °FLight snow. Overcast.3 mph100%29.65 "Hg4 mi
7:50 PM19 °FLight snow. Overcast.3 mph100%29.65 "Hg2 mi
7:20 PM19 °FLight snow. Overcast.3 mph100%29.65 "Hg2 mi
6:50 PM19 °FLight snow. Overcast.3 mph100%29.65 "HgN/A
6:20 PM19 °FLight snow. Passing clouds.6 mph100%29.62 "Hg6 mi
5:50 PM19 °FLight snow. Passing clouds.6 mph100%29.62 "Hg2 mi
5:20 PM19 °FLight snow. Overcast.5 mph100%29.62 "Hg2 mi
4:50 PM21 °FLight snow. Low clouds.6 mph93%29.62 "Hg1 mi
4:20 PM21 °FLight snow. Passing clouds.5 mph93%29.62 "Hg3 mi
3:50 PM19 °FLight snow. Partly cloudy.6 mph100%29.62 "HgN/A
3:20 PM19 °FPassing clouds.6 mph100%29.62 "HgN/A
2:50 PM19 °FPassing clouds.7 mph100%29.62 "HgN/A
2:20 PM19 °FBroken clouds.5 mph100%29.62 "HgN/A
Weather by CustomWeather, © 2014

See weather overviewHow to use our weather pages